Temp
7 7 7 7 7 6 7 7 7 8 8 9 10 10 11 12 12 13 13 13 13 13 13 13 13 13 13 13 13 13 13 13 13 12 12 11 11 11 11 11 11 11 12 12 12 12 12 12 12 12 13 13 11 11 12 12 12 14 14 13 13 15 15 16 16 16 16 16 16 17 18 19 20 19 17 17 17 16 15 15 15 14 14 15 16 16 16 15
7 7 7 7 6 6 7 7 7 8 8 9 10 10 11 12 12 13 13 13 13 13 13 13 13 13 13 13 13 13 13 13 13 12 12 12 12 11 11 11 11 11 11 11 11 11 11 10 10 11 12 12 11 11 12 12 12 13 12 11 13 14 14 14 14 13 14 14 13 14 15 16 19 19 18 18 17 14 15 14 14 15 14 14 14 15 15 15
6 7 7 6 6 6 7 7 7 8 8 9 9 10 11 12 12 13 13 13 13 13 13 13 13 13 13 13 12 13 13 13 13 12 12 12 12 12 11 11 11 11 11 11 11 11 11 11 11 11 12 12 10 10 12 12 12 13 12 12 12 11 12 13 12 12 12 12 13 13 14 14 16 17 17 18 16 15 16 15 14 15 15 15 14 14 14 14
6 7 7 6 6 6 6 7 7 7 8 9 9 10 11 12 13 13 13 13 13 13 13 13 13 13 13 13 12 12 12 13 13 12 12 12 12 12 11 11 11 11 11 11 11 11 11 11 11 11 12 12 10 10 12 11 11 12 11 12 11 10 12 13 12 11 12 12 13 13 13 15 15 15 16 17 17 15 15 16 16 16 15 15 14 14 14 14
6 6 6 6 6 6 6 7 7 7 8 8 9 10 11 12 13 13 13 13 13 13 13 13 13 13 13 13 13 12 12 13 13 12 13 12 12 12 11 11 11 11 11 11 11 11 12 11 11 10 11 11 11 11 11 10 10 11 11 11 10 10 11 12 11 11 11 11 12 13 14 15 15 15 15 16 17 16 16 16 17 16 15 14 14 14 14 14
6 6 6 6 6 6 6 6 6 7 7 8 9 10 11 12 12 13 13 13 13 13 13 13 13 13 13 13 13 13 13 14 13 12 13 12 12 12 11 11 11 11 11 11 11 11 10 10 10 10 10 10 10 11 10 9 10 10 10 11 10 10 10 11 11 10 10 10 12 13 13 14 14 15 15 15 17 17 15 15 16 16 15 14 14 14 14 14
6 6 5 6 6 6 6 6 6 6 7 8 9 10 11 12 12 12 13 13 13 13 13 13 13 13 13 13 13 13 13 13 13 13 13 12 12 12 12 11 11 11 11 11 10 9 9 10 10 9 9 10 9 9 9 9 10 10 10 10 10 10 10 11 10 10 10 10 11 12 12 13 14 15 15 15 16 16 14 13 14 15 15 14 14 14 14 14
6 6 6 6 6 6 6 6 6 6 7 7 8 9 10 11 12 12 12 13 13 13 13 13 13 13 13 13 13 13 12 12 13 13 12 12 12 12 12 12 11 11 11 10 10 9 9 9 9 9 9 9 8 9 9 9 10 10 10 10 9 9 10 10 10 11 11 10 11 12 12 13 14 14 13 15 16 15 13 13 14 14 14 14 14 14 14 14
6 6 6 6 6 6 6 6 6 6 7 7 8 9 10 11 12 12 12 13 13 13 12 12 12 12 13 12 11 12 13 13 13 12 12 12 12 12 12 11 11 11 11 10 10 10 10 9 9 9 9 8 8 9 8 9 10 8 9 9 9 9 9 10 11 12 12 11 11 12 12 13 14 14 13 14 15 13 13 14 14 14 14 15 15 14 14 14
6 6 6 6 6 6 6 6 6 6 7 7 8 9 10 12 12 12 12 12 13 13 12 12 12 12 12 11 11 12 13 13 13 12 12 12 12 12 12 11 11 11 11 10 10 10 10 9 9 8 9 9 8 8 8 9 9 8 9 9 9 9 9 10 10 11 11 11 11 12 12 13 14 14 14 14 13 12 13 14 14 14 14 15 15 14 14 14
6 6 6 5 5 6 6 6 6 6 7 7 8 9 10 11 12 12 12 12 12 12 12 12 12 12 11 11 12 13 13 13 13 12 12 12 12 12 12 11 11 11 11 10 10 10 10 10 9 8 9 9 8 9 8 8 8 8 9 8 9 9 9 9 10 11 12 12 12 12 12 13 13 13 14 15 13 12 13 13 13 14 14 14 14 14 14 14
6 6 6 5 5 6 6 6 6 6 7 7 8 9 10 11 12 12 12 12 12 12 12 12 12 12 11 11 12 13 13 13 12 12 12 12 12 12 12 11 11 11 11 10 10 10 10 10 10 9 9 9 8 9 9 8 8 8 9 8 9 9 9 10 10 11 12 12 13 13 12 13 13 13 14 15 13 12 13 13 14 14 14 14 14 14 14 14
6 6 6 5 5 6 6 6 6 6 7 7 8 9 11 12 12 12 12 12 12 12 12 12 12 12 11 12 13 13 13 13 12 13 12 12 12 12 12 11 11 11 11 10 10 10 10 10 10 9 8 8 8 9 9 8 8 9 8 8 8 8 9 10 10 10 11 11 13 13 12 13 14 14 14 14 12 12 13 13 14 14 14 14 14 14 14 13
6 6 6 6 5 5 5 6 6 6 6 7 8 10 11 12 12 12 12 12 12 12 12 12 12 11 11 13 13 13 13 13 13 13 13 12 12 12 11 11 11 11 10 10 10 10 10 10 9 8 8 8 8 9 8 8 8 8 8 8 8 7 9 10 10 9 10 11 13 13 11 12 14 14 13 12 12 12 13 13 14 14 14 14 14 14 14 13
6 6 6 6 6 5 5 6 6 6 7 8 9 10 11 12 12 12 12 12 12 12 12 11 11 11 11 13 13 13 13 13 13 13 12 12 12 12 11 11 11 10 10 10 10 10 10 9 9 8 8 8 8 8 7 7 8 8 8 8 7 7 8 10 10 9 10 11 12 11 10 11 14 14 13 12 12 13 13 13 13 14 14 14 14 14 13 12
6 6 6 6 6 6 5 6 6 7 8 9 10 11 12 12 12 12 12 12 12 12 11 11 11 11 11 13 13 13 13 13 13 13 12 12 12 11 11 11 10 10 10 10 9 9 9 9 8 8 8 8 8 8 7 7 7 7 7 8 7 7 7 8 10 10 10 10 11 11 11 12 13 13 12 12 12 13 13 13 13 14 14 14 14 13 12 11
6 6 6 6 7 7 6 7 7 8 9 10 11 11 12 12 12 13 12 12 12 11 11 11 10 10 12 13 13 13 13 12 13 12 12 11 11 11 11 10 9 9 10 9 9 9 9 9 8 7 7 7 7 7 7 7 7 7 7 7 7 7 7 7 9 11 9 9 10 11 11 11 12 12 12 12 12 13 13 13 14 14 14 14 13 12 11 11
6 6 6 7 7 8 8 8 9 9 10 11 11 12 12 12 12 12 12 12 11 11 11 10 10 11 13 13 13 13 12 12 12 11 11 11 11 10 10 10 9 9 9 9 9 8 8 8 7 7 7 6 6 7 7 8 9 9 8 7 7 7 7 7 8 10 10 9 10 10 10 11 12 12 12 12 13 13 13 13 14 14 14 13 12 12 11 11
6 6 7 7 8 8 9 9 10 10 11 11 12 12 12 12 12 12 11 11 11 12 13 11 11 13 13 12 12 12 12 12 12 11 11 11 10 10 9 9 8 8 9 9 8 8 8 8 7 7 7 7 7 7 7 9 9 9 8 8 8 7 7 7 8 9 9 9 9 9 9 10 11 12 12 13 13 13 13 13 13 14 14 13 12 12 11 10
6 6 7 8 8 9 9 10 10 11 11 12 12 12 13 13 13 12 11 11 11 11 12 12 11 12 13 12 11 12 12 11 12 11 10 10 10 10 9 8 8 8 8 9 8 7 7 8 7 7 8 8 8 7 7 9 8 8 7 7 7 7 7 8 8 9 9 9 9 9 9 9 10 11 12 13 13 13 13 13 13 14 14 13 12 12 11 10
6 7 7 8 9 9 9 10 11 11 12 12 13 13 13 12 13 13 12 12 10 8 10 10 9 11 12 11 10 11 12 12 12 10 10 10 10 10 9 8 9 9 8 8 8 7 7 7 8 9 9 9 9 8 7 7 7 7 7 6 6 6 7 7 8 9 9 9 9 9 9 9 10 11 11 12 12 13 13 13 13 13 13 12 12 11 10 9
6 7 7 8 9 9 10 10 11 11 12 12 13 12 10 10 11 11 11 13 11 7 8 8 8 10 10 10 10 10 11 12 12 10 9 10 9 10 10 8 9 9 8 7 8 7 7 7 9 10 10 9 8 8 7 6 7 6 6 6 6 6 7 7 8 8 8 8 8 9 8 9 10 11 11 12 12 12 13 13 13 13 12 12 11 11 9 8
7 7 8 8 9 9 10 11 11 11 12 12 12 11 9 10 10 10 10 12 12 8 8 10 11 11 11 11 10 10 11 12 12 11 9 10 10 9 9 9 9 9 8 8 8 8 8 9 10 10 9 9 8 7 6 6 6 6 6 6 6 6 7 8 8 7 8 8 9 9 8 8 9 10 11 12 12 12 13 13 13 13 13 12 11 10 9 8
7 7 8 9 9 10 10 11 11 11 12 12 12 11 10 11 10 10 10 10 11 10 9 10 10 10 11 11 10 10 11 10 11 11 9 10 10 8 9 10 9 9 9 9 8 8 9 10 10 9 9 8 8 7 6 6 6 6 6 6 7 7 7 8 8 7 8 9 9 8 8 8 9 10 10 11 12 12 12 13 13 13 13 12 11 10 9 8
6 7 8 9 9 10 10 11 11 11 11 11 11 11 10 11 10 10 11 11 12 12 10 9 9 10 11 11 10 10 10 10 10 10 9 9 10 9 9 9 8 10 10 9 9 8 9 10 10 9 9 8 7 7 7 7 7 7 7 7 7 7 7 7 7 7 8 8 8 8 7 9 10 10 10 11 12 12 12 12 13 12 12 11 10 10 9 8
6 7 8 9 10 10 10 11 11 11 11 11 11 11 10 11 10 10 11 12 13 13 12 12 11 11 11 10 10 9 10 12 10 8 9 10 10 10 10 9 9 10 10 9 9 9 9 9 9 8 8 8 7 7 7 7 7 7 8 8 7 7 7 7 7 7 7 7 9 9 8 9 10 10 10 11 12 12 12 12 12 12 12 11 10 10 9 8
6 7 8 9 9 10 11 11 11 11 11 11 11 10 10 11 10 10 12 14 14 13 12 12 11 11 11 10 9 10 12 13 10 8 9 9 9 9 10 9 9 9 9 9 9 10 10 9 9 8 8 8 7 8 8 8 7 8 9 9 8 7 7 7 7 7 7 8 8 8 9 9 10 11 11 11 11 11 12 12 12 12 12 11 11 10 9 8
6 7 8 9 9 10 10 10 11 10 11 11 10 10 11 11 10 11 13 16 14 11 12 12 11 11 11 8 8 10 12 12 12 11 8 8 9 9 9 10 9 10 9 9 9 10 10 10 10 9 8 8 8 8 8 7 8 9 9 9 8 7 7 7 7 7 8 8 8 8 9 8 9 11 12 11 11 11 12 12 12 12 11 11 11 10 9 8
6 7 8 9 9 10 10 10 10 10 11 11 10 11 10 10 10 11 14 16 13 11 12 12 12 11 10 9 9 9 10 11 12 11 8 9 9 9 10 10 9 9 9 8 9 10 10 10 9 8 8 9 9 9 8 7 8 9 8 8 8 7 7 7 7 7 8 8 9 9 9 8 10 11 11 11 11 11 12 12 13 12 12 11 11 10 9 8
6 7 8 9 9 10 10 10 10 11 11 10 11 11 10 11 12 14 16 15 13 12 12 12 12 11 10 11 11 10 10 11 11 10 10 9 9 9 9 8 8 8 8 7 8 8 9 8 7 8 8 9 9 8 8 7 7 8 8 8 9 8 7 7 7 8 8 9 10 10 9 9 10 11 11 11 12 12 13 13 13 12 12 12 11 10 9 8
6 7 8 9 9 10 10 10 10 11 10 10 11 10 10 11 12 15 16 13 12 12 12 12 11 10 9 10 11 10 10 10 9 10 11 10 9 10 10 9 9 9 9 8 8 8 9 8 8 8 8 8 8 8 8 7 7 8 8 8 9 9 9 8 9 9 8 9 10 10 9 9 10 11 12 12 13 13 13 13 13 12 12 12 11 10 9 9
6 7 8 8 9 9 10 10 10 10 10 10 10 10 12 13 14 16 15 13 13 13 11 11 10 9 8 8 9 10 10 10 9 9 10 9 9 10 9 9 9 10 10 10 9 10 11 10 9 9 8 7 8 9 8 8 7 7 8 8 10 10 10 9 10 10 9 10 10 10 10 10 10 12 12 12 13 14 14 13 13 13 12 12 11 10 9 9
6 7 8 8 9 9 9 10 10 10 11 10 10 11 13 16 16 14 12 13 14 11 9 9 8 8 8 9 10 9 8 10 10 9 9 8 9 9 8 7 8 9 10 8 8 9 11 12 10 10 9 7 8 9 9 9 8 8 8 9 10 10 10 11 11 11 11 11 10 10 10 11 12 12 12 12 13 13 13 14 14 13 13 12 11 10 10 9
6 7 8 8 9 9 9 9 10 10 10 10 11 13 14 16 15 11 11 13 11 8 8 8 8 8 8 9 10 8 9 11 9 9 10 9 10 11 9 7 7 8 8 8 8 8 10 11 11 12 11 8 9 10 10 9 8 8 8 9 10 11 11 11 11 11 11 11 10 10 11 12 12 12 11 11 11 11 12 13 13 13 12 12 11 10 10 9
7 7 8 8 9 9 9 9 9 10 10 10 12 14 15 16 14 11 12 12 9 9 9 6 7 10 10 9 8 7 10 11 9 9 10 10 10 10 10 9 7 7 8 9 9 8 9 11 12 12 11 9 10 10 9 8 8 8 8 8 9 9 9 10 11 11 11 12 11 11 11 11 11 11 10 10 10 11 12 12 12 12 12 11 11 10 10 10
7 7 8 8 8 9 9 9 10 9 9 10 13 14 15 15 13 12 11 9 9 10 10 9 9 11 12 11 9 8 9 9 9 10 10 10 10 9 9 9 8 8 9 8 9 8 9 11 12 11 11 10 9 10 9 9 9 9 8 9 9 8 8 10 11 11 11 12 12 11 12 11 11 11 10 10 11 11 11 12 12 11 11 11 11 10 10 10
7 7 7 8 8 9 9 9 9 9 9 11 14 14 13 12 11 9 8 7 7 8 10 12 11 10 11 11 10 10 9 9 9 9 11 10 10 10 9 9 8 8 8 8 8 9 8 10 11 11 12 10 7 8 9 8 9 9 9 9 8 7 8 9 11 12 12 12 12 11 11 11 11 12 11 11 11 11 11 11 11 11 11 11 11 11 10 10
7 7 7 7 8 8 9 9 9 9 10 11 13 12 10 9 8 6 6 6 6 8 10 12 11 10 10 10 11 9 8 10 10 9 10 11 11 10 9 10 8 7 7 7 8 8 8 9 11 11 11 10 8 9 10 9 8 8 8 8 8 8 9 9 10 12 12 12 12 11 11 11 11 11 11 11 11 11 11 11 11 11 11 11 11 11 11 10
7 8 8 7 8 8 9 10 8 9 11 12 14 13 9 8 7 4 5 6 7 9 11 10 9 9 9 9 10 8 8 10 10 9 10 10 11 10 9 9 9 7 6 6 7 8 7 8 10 11 10 10 10 11 11 10 9 9 8 8 8 8 9 9 9 10 11 12 12 11 12 12 11 10 10 11 11 11 11 11 11 11 11 11 11 11 11 11
7 9 9 7 8 9 8 9 9 10 12 10 11 10 7 7 6 3 4 5 6 8 9 9 8 9 9 8 8 8 7 8 8 8 9 9 10 11 9 8 9 8 5 5 6 6 7 8 10 11 10 11 11 11 10 10 9 9 9 8 7 7 8 9 9 9 10 12 12 11 12 11 10 10 10 10 10 11 11 11 11 11 11 11 11 11 11 11
7 10 9 6 8 8 8 10 9 8 10 9 8 8 6 7 7 4 3 4 5 6 6 7 8 8 9 9 8 7 7 8 7 8 9 9 10 11 9 8 8 8 6 6 7 6 7 8 8 9 10 12 12 9 8 9 8 8 8 8 7 7 7 9 10 9 8 10 11 11 12 11 10 10 10 10 10 10 10 10 11 12 11 12 12 11 11 11
8 10 8 6 7 8 8 10 6 3 8 10 7 6 6 6 6 5 4 4 5 5 5 6 7 7 8 8 8 7 7 8 8 8 9 9 9 11 9 7 7 7 7 8 8 7 7 7 7 8 9 11 10 6 5 7 7 7 7 7 7 6 7 8 10 10 9 9 9 10 12 11 10 10 9 9 9 9 9 9 11 12 12 12 12 12 12 11
8 9 6 6 7 7 9 10 6 5 8 7 4 4 4 5 6 5 4 5 6 6 6 6 7 7 8 7 7 7 7 8 8 9 9 8 8 10 8 6 7 7 7 9 8 7 7 7 7 9 11 11 8 5 5 5 6 8 8 7 7 7 6 7 8 8 9 9 9 11 12 11 10 10 9 8 8 8 8 8 10 12 12 12 12 11 12 12
7 6 6 7 7 7 9 11 10 10 8 5 5 6 4 4 5 6 6 6 7 6 7 8 7 7 7 6 6 7 7 9 9 9 8 8 8 9 7 6 7 7 8 9 8 7 8 8 9 10 11 12 11 10 9 8 8 9 9 8 7 6 6 7 7 7 9 9 8 11 12 10 10 10 9 9 9 9 9 8 10 11 11 11 12 11 11 11
7 7 7 7 7 7 8 8 9 11 8 6 8 8 6 6 5 5 6 6 5 6 8 7 6 6 6 5 6 7 6 8 9 8 7 7 8 9 7 6 6 7 8 7 6 7 8 8 9 10 11 11 12 12 11 9 9 9 9 9 8 6 5 6 7 8 10 9 7 9 11 10 10 10 9 9 9 9 9 9 9 10 10 10 11 10 11 11
9 9 8 7 7 7 6 3 5 10 9 8 10 8 8 9 6 3 5 6 5 5 6 6 5 6 6 6 7 8 7 7 7 7 7 8 9 9 7 5 6 7 7 6 5 6 6 6 7 10 10 10 11 11 9 8 8 9 10 9 8 6 5 6 8 9 9 9 9 8 8 9 9 9 9 9 9 9 9 9 9 9 9 9 9 10 10 10
9 10 9 8 8 8 7 5 6 8 8 9 11 9 8 9 7 5 5 5 5 5 5 5 5 7 8 7 8 9 7 7 6 6 8 7 8 9 7 5 6 6 6 5 4 5 7 8 6 6 8 9 9 9 7 6 7 8 9 9 9 7 6 7 9 9 8 9 10 9 8 8 9 9 8 8 8 8 9 9 9 9 8 8 8 9 9 9
8 10 8 8 10 9 8 8 7 8 7 8 10 9 8 8 8 8 7 4 4 5 7 6 6 7 8 8 9 9 8 8 7 7 8 8 7 9 9 8 7 6 6 6 5 5 8 9 5 3 6 7 6 6 5 5 6 7 8 9 9 8 8 8 8 7 7 9 10 9 8 9 9 8 8 8 8 8 8 8 7 8 8 8 8 9 9 9
6 8 6 6 9 9 8 7 7 7 8 8 8 9 9 9 10 9 6 5 5 5 6 9 9 7 7 7 8 9 9 10 10 9 9 8 8 8 10 10 8 6 7 8 6 5 7 9 4 2 6 8 5 4 4 5 7 8 9 9 9 8 8 8 8 6 7 8 8 8 8 9 8 8 9 9 8 7 7 8 8 8 8 8 9 9 9 9
7 8 7 7 8 6 5 5 6 7 8 8 9 9 8 9 10 9 6 8 10 7 4 9 11 7 5 6 7 9 10 11 12 10 9 9 9 8 9 10 9 7 8 8 7 5 7 9 5 3 8 10 7 4 4 4 6 9 11 10 9 9 9 9 8 8 8 9 8 8 9 9 8 8 8 8 8 8 9 10 10 9 9 9 9 9 9 9
7 7 7 8 9 6 5 5 6 7 8 7 9 9 8 9 10 9 9 9 10 9 7 9 10 6 3 4 6 9 9 9 10 10 9 9 9 9 9 9 7 7 8 7 6 7 7 7 6 5 10 13 9 6 6 5 5 10 13 12 10 11 11 10 10 9 9 10 9 9 10 10 9 9 8 8 9 9 10 11 11 10 9 9 9 9 9 9
7 6 6 8 10 7 6 6 6 8 9 8 9 9 9 10 8 8 11 9 7 8 7 8 9 7 5 6 8 9 9 7 8 7 6 7 7 7 8 6 5 6 7 6 6 6 5 7 7 6 10 14 11 7 7 9 12 14 14 12 11 11 11 11 10 9 9 10 11 12 12 10 9 9 9 9 9 10 11 11 10 10 10 9 9 9 9 9
Height
864 863 862 862 861 860 860 860 860 859 859 859 859 859 859 859 859 859 859 858 858 857 857 856 855 854 853 852 851 851 851 850 850 849 848 850 851 850 850 850 848 847 846 844 842 840 839 839 838 837 836 837 840 841 840 841 840 840 843 847 844 841 839 834 834 835 832 830 830 826 823 821 819 819 819 819 823 826 829 830 829 829 829 828 827 827 830 835
864 863 862 862 861 860 861 861 860 860 860 860 860 860 859 859 859 859 859 858 858 857 857 856 855 854 853 852 852 851 851 850 850 849 850 851 851 851 851 850 848 847 846 844 843 842 842 842 841 839 839 840 843 842 840 842 842 842 849 851 845 843 842 838 840 840 839 839 839 833 829 828 821 817 817 818 826 829 829 833 833 832 831 830 829 829 831 834
864 864 863 862 861 861 861 861 860 860 860 860 860 860 860 859 859 859 859 859 858 858 857 856 855 854 853 852 851 851 850 850 850 851 851 852 851 851 851 850 849 847 846 845 845 844 844 844 842 842 842 843 846 846 843 844 844 844 849 849 848 850 846 840 843 843 843 843 840 836 833 831 825 821 819 817 825 828 825 828 831 833 832 830 830 829 831 834
864 864 863 862 861 861 861 861 860 860 860 860 860 860 860 859 860 859 859 859 858 858 857 856 855 854 853 852 851 851 850 850 852 853 853 852 852 851 851 850 849 848 847 847 846 846 845 845 843 843 844 845 849 848 846 848 848 848 850 850 850 853 848 841 843 845 844 843 841 839 834 830 826 824 823 819 824 828 824 821 821 823 826 828 829 829 830 833
865 864 863 862 862 861 861 861 860 860 860 860 860 859 859 859 859 859 859 859 858 858 857 856 855 854 853 852 851 850 850 852 854 854 853 853 852 852 851 850 850 849 848 848 847 847 846 845 844 845 847 848 850 847 849 853 851 850 851 852 853 853 851 845 844 845 845 844 841 839 835 831 827 825 824 821 820 821 821 817 814 815 818 821 825 828 830 832
865 864 863 862 862 862 862 861 860 860 860 860 860 859 859 859 859 859 859 859 858 858 857 856 855 854 853 852 851 850 850 853 855 854 854 853 853 852 852 851 851 850 849 848 848 847 847 847 846 849 851 851 854 851 852 856 853 853 853 852 853 854 853 848 845 845 846 846 842 839 836 832 830 826 824 822 818 815 815 814 814 815 816 816 818 824 828 830
865 864 863 863 862 862 862 861 860 860 860 860 859 859 859 859 859 859 859 859 859 858 858 857 856 854 854 853 852 852 852 854 854 854 854 853 853 852 852 851 851 850 849 847 847 848 848 849 849 853 854 854 857 856 855 857 855 856 855 852 853 854 853 850 848 845 845 845 841 839 837 834 832 828 824 821 817 816 816 815 815 816 818 819 818 820 824 826
865 864 863 863 862 862 862 861 861 861 860 859 859 859 859 859 859 859 859 859 859 859 858 857 856 855 854 853 853 854 855 855 854 854 854 854 853 852 852 851 851 850 849 848 849 850 850 851 852 854 856 857 859 858 857 856 854 855 855 854 854 854 851 850 848 845 843 843 840 838 836 833 830 829 826 821 816 815 816 816 815 817 820 822 820 819 821 823
865 865 864 863 862 862 862 861 861 860 860 859 859 859 859 859 859 859 859 859 859 859 858 857 856 855 854 854 854 856 856 854 854 854 853 853 852 852 852 851 850 849 850 851 851 851 852 854 855 854 855 858 858 858 859 857 855 857 857 856 856 854 852 850 847 843 841 841 839 837 834 831 828 829 826 819 817 816 816 816 816 817 820 821 821 820 820 823
865 865 864 863 862 862 862 861 861 860 860 859 859 859 859 859 859 859 859 859 859 859 858 857 856 856 855 854 855 856 855 854 854 853 853 853 852 852 852 851 851 850 851 852 852 852 853 854 855 855 855 857 858 858 859 857 857 858 857 855 855 853 852 850 847 844 841 839 837 836 832 827 826 827 823 817 818 818 815 816 816 817 819 820 820 820 821 823
865 865 863 863 862 862 861 861 860 860 859 859 858 858 858 859 859 859 859 859 859 859 858 857 856 856 855 855 857 856 853 853 854 853 853 852 852 852 851 851 851 851 851 852 852 853 854 854 854 855 855 856 857 856 857 857 857 857 855 855 852 850 850 848 846 843 841 837 833 833 831 826 825 824 819 815 817 818 817 817 817 817 818 819 819 821 823 824
865 864 863 862 862 862 861 861 860 860 859 858 858 857 858 859 859 859 859 859 859 858 858 857 857 856 856 856 856 854 853 853 853 853 852 852 852 852 851 851 851 851 852 852 852 853 853 854 854 855 856 857 857 856 855 856 856 855 855 855 851 849 848 844 842 839 838 835 829 831 830 822 822 820 815 815 817 818 818 817 817 817 817 819 820 821 823 824
865 864 863 862 862 862 861 860 860 859 858 858 857 857 858 858 859 859 859 859 859 858 858 857 857 857 857 856 854 853 853 853 853 852 852 851 851 851 851 851 851 851 852 852 852 853 853 853 854 856 857 857 858 856 854 854 854 853 854 856 853 853 848 839 838 836 836 833 827 832 830 816 814 814 813 814 817 818 818 817 816 816 817 818 819 821 823 825
864 864 863 862 862 861 860 860 859 859 858 857 856 857 857 858 858 858 859 859 858 858 858 857 857 857 857 855 853 853 853 853 852 852 851 851 851 851 851 851 851 851 852 851 852 852 852 853 854 856 856 857 857 855 855 856 855 854 854 854 856 857 847 835 837 838 837 831 825 832 831 816 812 813 813 814 814 817 818 817 816 815 816 817 819 822 824 825
864 863 863 862 861 860 860 859 858 858 857 856 856 856 857 857 858 858 858 858 858 858 857 858 857 857 858 855 852 853 853 852 851 851 850 850 850 850 850 851 851 851 851 851 851 851 852 853 854 856 856 856 856 857 860 859 856 857 855 852 856 858 849 838 837 837 835 829 825 832 829 816 812 812 813 815 813 814 816 815 815 814 815 816 818 821 824 827
864 863 862 861 860 859 859 858 857 857 856 856 856 856 856 857 857 858 858 858 858 857 857 857 857 858 858 854 852 853 852 851 850 850 849 849 849 849 850 851 851 851 851 851 851 851 852 853 855 857 857 857 859 861 863 862 860 861 858 854 854 855 852 844 835 831 833 831 828 829 825 816 812 812 813 814 814 814 814 815 814 814 814 815 817 820 824 827
863 862 861 860 859 859 858 857 856 856 856 855 855 856 856 857 857 857 857 857 857 857 857 857 857 859 857 853 852 852 852 851 849 849 848 848 849 849 849 850 851 851 851 851 851 852 853 853 856 857 858 861 862 862 864 862 858 858 860 860 855 853 854 849 836 829 832 835 829 826 824 819 814 813 814 813 813 814 814 814 814 813 813 814 817 820 823 826
862 861 860 859 858 858 857 856 856 856 855 855 855 855 856 856 857 857 857 857 856 856 856 856 858 858 855 852 853 852 851 850 848 848 847 847 848 849 850 850 851 851 852 853 852 853 854 855 858 859 860 863 863 863 863 856 848 848 853 856 853 852 852 850 841 832 830 833 831 828 827 824 818 814 814 812 812 812 812 813 812 812 813 814 817 819 822 823
861 861 860 859 858 857 857 856 856 855 855 855 855 856 856 856 856 856 856 856 856 855 855 856 857 856 855 853 853 852 851 849 848 846 846 847 848 849 850 851 852 852 854 854 853 855 856 856 859 860 857 857 857 858 853 845 842 844 847 849 849 849 847 845 841 834 833 834 833 831 829 826 823 817 813 812 811 811 811 812 812 811 811 813 816 818 820 822
861 860 859 858 857 857 857 856 856 856 856 855 856 856 856 856 856 855 856 856 855 854 854 856 857 856 854 853 853 852 849 848 847 846 847 847 848 849 851 852 853 854 855 854 854 856 857 857 858 853 847 845 846 849 846 842 843 847 850 850 850 850 845 839 836 833 833 835 832 829 827 826 824 819 813 811 810 810 810 810 810 810 810 813 816 817 820 824
861 859 858 858 857 857 856 856 856 856 856 856 856 856 856 857 856 856 856 854 853 854 854 855 857 855 854 853 853 852 850 847 845 846 847 848 849 850 851 853 853 853 855 856 856 857 859 858 848 839 838 838 839 843 846 846 846 849 851 851 851 850 843 836 834 832 832 835 832 827 828 826 821 817 813 810 809 808 808 808 809 809 810 812 815 818 822 827
860 859 858 857 856 857 856 856 856 856 856 856 856 856 857 858 858 858 858 855 853 854 854 855 856 855 853 854 854 853 852 848 845 846 847 848 849 849 851 854 853 852 855 857 857 857 858 851 837 831 834 837 838 841 845 846 847 848 850 853 851 845 841 836 833 832 833 837 832 827 829 826 818 814 810 808 806 805 804 805 806 808 810 812 814 819 823 827
859 858 857 856 857 856 856 856 856 856 856 856 856 856 858 859 859 859 859 857 855 853 854 854 854 854 854 853 854 854 852 850 848 846 847 848 849 851 852 852 852 852 854 855 854 855 850 837 829 831 833 836 839 840 844 846 846 846 847 850 844 837 838 832 829 832 831 831 828 824 828 825 817 812 808 806 804 803 803 802 803 805 808 811 813 817 821 824
859 858 856 856 856 856 857 857 857 857 856 856 857 857 858 859 859 858 858 860 858 854 854 854 853 854 854 853 854 853 851 852 850 846 846 847 849 853 851 850 852 851 850 849 851 852 843 828 826 831 832 835 838 837 842 844 843 842 841 841 835 832 836 829 828 832 827 825 825 826 831 824 815 812 807 804 803 802 802 802 803 804 806 810 813 816 820 822
858 857 856 856 856 856 857 856 857 857 857 857 857 857 859 858 859 859 857 860 858 854 853 854 854 854 853 853 853 853 853 851 848 845 846 847 849 851 850 851 851 846 844 845 848 848 839 827 827 831 831 834 836 835 837 839 838 836 833 831 828 828 833 832 832 834 833 830 823 824 833 821 807 809 807 802 802 802 801 802 803 804 806 810 813 816 820 823
857 856 856 855 855 856 856 857 858 858 857 858 857 858 858 858 859 858 858 861 857 852 852 853 854 853 853 854 853 854 852 847 845 845 845 846 847 849 849 850 849 845 842 844 845 841 834 829 829 832 833 834 836 832 831 833 835 831 821 819 824 827 830 832 834 836 835 829 818 819 827 817 803 804 803 800 800 800 799 801 801 803 805 808 812 815 818 821
857 856 855 855 856 856 856 857 858 857 858 857 857 859 858 858 859 857 858 857 853 855 855 853 854 854 853 854 855 853 847 842 843 845 846 846 846 848 848 847 846 844 843 845 842 832 827 828 829 831 834 833 833 829 824 827 832 824 812 812 821 827 829 830 832 833 829 823 820 819 820 818 809 799 795 796 800 800 798 799 800 801 804 807 810 813 816 819
856 856 855 855 856 856 857 857 857 858 858 857 858 858 858 859 858 857 856 851 852 858 856 853 854 853 854 855 855 853 847 845 844 843 846 846 845 848 847 844 844 842 842 847 843 828 824 826 825 828 833 831 827 824 822 826 825 817 811 813 818 823 826 828 831 830 826 824 821 816 817 821 811 795 790 795 798 798 796 796 797 799 803 806 809 812 815 818
856 855 855 855 855 856 857 857 858 858 858 858 859 857 858 858 857 858 856 853 855 858 854 853 853 853 856 854 854 855 850 846 846 844 845 846 845 847 844 841 843 842 841 847 843 830 824 825 826 830 831 826 819 818 822 826 821 813 813 815 816 821 823 825 828 826 825 825 815 807 813 817 806 793 792 794 795 794 792 792 794 797 800 803 807 812 814 818
856 855 855 855 856 856 857 857 858 858 858 859 858 858 859 857 857 856 854 853 856 857 855 852 853 857 860 854 850 854 851 847 849 847 844 846 845 845 843 841 842 843 844 846 842 833 826 826 830 829 825 820 817 817 820 822 819 815 816 815 813 818 821 822 824 822 821 816 803 799 806 810 802 792 789 788 786 786 786 789 792 795 799 801 804 810 813 816
856 855 855 855 856 856 857 858 858 858 859 859 858 859 858 858 860 855 852 857 859 857 855 854 859 862 864 862 856 852 851 850 853 849 844 846 847 844 841 840 841 840 839 840 836 830 826 825 825 822 819 819 819 818 816 819 821 818 817 815 810 811 814 816 816 817 818 807 794 795 801 806 802 789 783 782 778 779 782 785 789 793 797 799 802 807 810 814
856 855 855 855 856 856 857 857 858 858 859 858 859 860 857 857 856 851 854 858 854 855 859 861 864 865 868 871 863 857 855 851 852 852 849 851 850 848 847 847 847 840 835 838 838 827 816 815 818 816 817 820 819 816 814 815 819 819 819 816 809 807 808 809 807 806 806 798 792 795 798 801 796 782 780 781 776 776 778 781 785 788 791 796 800 805 809 812
855 855 855 855 856 857 858 858 858 859 858 859 860 860 858 852 850 859 863 856 852 862 869 868 869 871 871 865 859 862 860 851 852 853 854 857 853 851 855 857 856 848 844 848 849 837 815 807 812 811 813 819 817 814 813 813 816 815 815 813 805 802 801 799 798 796 792 788 790 794 795 792 783 776 779 780 777 777 778 779 782 785 789 793 798 803 807 811
855 855 855 856 856 857 858 858 859 859 859 860 859 858 856 849 853 869 866 858 865 872 873 874 871 869 869 863 861 865 857 850 857 855 852 854 849 845 850 856 857 854 853 852 850 848 832 813 808 805 807 816 815 811 812 815 816 813 812 811 803 798 798 791 787 787 785 784 790 793 791 783 776 777 781 780 781 782 781 780 781 785 790 793 798 803 806 809
855 855 855 856 856 857 858 859 859 860 859 860 860 858 855 848 854 865 860 861 872 871 870 877 875 864 862 864 867 868 857 852 858 856 850 850 848 846 847 850 856 856 853 849 845 848 841 820 807 805 807 812 810 809 814 815 813 813 813 810 805 804 805 796 787 787 783 779 786 788 784 782 780 783 784 782 783 783 782 781 783 786 790 793 798 801 804 808
855 856 856 856 857 858 859 858 859 860 860 861 859 856 853 850 855 862 863 867 871 868 865 866 868 862 855 859 864 866 863 859 860 855 850 851 849 850 851 849 854 855 851 852 849 848 842 819 804 805 806 809 811 810 814 814 810 812 812 808 809 812 812 800 786 784 782 777 782 783 781 784 784 783 784 782 780 782 783 784 785 788 790 793 797 799 802 805
855 855 855 857 857 857 858 859 860 860 861 861 855 854 858 859 861 866 871 874 874 874 866 857 862 865 859 859 859 861 864 861 861 857 849 848 846 847 851 849 852 854 850 853 851 848 848 827 806 806 804 806 816 814 811 815 814 813 812 810 812 812 810 805 789 780 779 778 782 785 785 788 785 781 784 785 783 786 787 787 788 790 791 793 795 797 799 803
855 855 856 857 857 858 859 859 860 859 861 862 857 858 866 866 868 874 875 876 876 873 865 859 863 868 869 867 859 863 866 854 855 860 853 849 845 845 849 847 849 854 853 854 852 849 852 836 810 806 806 806 814 813 809 812 814 814 814 813 814 808 802 802 794 783 780 780 784 786 785 786 786 784 787 787 787 788 788 788 788 789 790 791 794 796 798 802
855 855 856 858 857 859 859 858 861 861 860 861 854 856 868 870 872 879 877 875 875 869 864 866 869 870 873 873 865 868 870 858 859 863 855 850 846 844 849 849 847 853 855 856 855 851 852 845 819 805 807 807 806 806 807 810 812 812 813 813 815 814 807 805 802 795 787 782 785 788 784 783 787 789 789 788 788 788 787 788 787 788 790 791 793 796 798 801
854 854 856 859 857 858 860 859 861 860 858 863 860 861 873 873 873 881 879 875 875 870 868 872 874 871 870 873 874 875 873 869 868 865 859 857 851 842 847 851 847 852 858 858 859 855 852 851 831 808 805 805 802 806 810 812 813 813 813 815 818 817 812 806 804 806 799 784 780 786 785 786 790 791 790 789 788 788 789 789 787 788 790 790 792 795 797 800
854 852 854 859 857 858 861 858 863 867 863 864 867 870 875 872 872 880 881 878 877 876 876 875 873 873 871 870 874 878 875 871 871 868 862 859 853 843 847 852 849 852 856 854 854 854 850 850 842 826 815 803 801 815 820 816 817 818 817 820 823 823 818 806 796 802 808 798 789 785 781 785 792 792 791 791 789 789 790 791 789 788 790 791 792 794 796 799
852 850 854 859 857 859 860 859 872 880 867 860 867 871 872 872 873 877 879 878 876 877 880 879 875 875 874 871 874 880 877 871 870 867 861 859 855 847 848 854 853 853 853 848 849 853 851 852 850 837 819 805 808 824 827 823 824 823 821 823 825 825 825 813 797 799 806 805 804 795 782 786 794 793 793 793 792 793 793 793 790 787 789 791 792 794 796 798
853 853 857 858 857 860 859 859 871 876 867 868 875 875 875 875 874 875 877 876 873 876 878 877 875 872 873 875 876 878 877 869 865 861 859 862 857 847 850 856 854 854 852 846 848 852 851 852 847 827 808 805 816 827 828 828 826 819 818 824 824 824 826 820 813 813 808 803 802 791 780 788 794 793 795 794 793 794 794 794 791 787 789 791 792 794 796 797
856 857 859 859 858 860 857 854 857 858 863 873 873 871 875 877 875 873 873 871 871 873 872 872 873 871 873 879 877 876 875 866 860 860 861 863 855 847 852 856 853 853 850 846 850 850 846 846 841 826 809 802 804 810 813 818 819 815 816 820 821 825 828 822 820 819 808 808 810 792 782 794 798 794 796 795 793 793 793 794 792 789 790 791 792 795 796 797
854 856 859 859 858 860 860 859 857 854 862 870 864 864 869 870 873 874 870 871 873 872 869 870 875 874 876 880 877 876 878 869 862 863 865 864 854 848 852 855 854 852 849 851 854 851 848 848 840 830 826 818 808 804 809 816 819 816 813 815 819 825 828 822 816 810 802 808 817 804 794 800 799 795 796 796 795 795 794 795 795 793 794 793 794 795 796 797
849 851 858 861 861 861 863 867 865 857 860 861 856 861 864 861 869 876 872 870 872 874 872 872 876 876 875 877 872 870 874 873 871 869 866 861 851 846 852 856 854 852 851 854 856 854 856 856 846 836 832 829 819 814 823 831 826 816 810 811 816 823 829 824 811 806 806 807 809 810 810 807 800 799 800 799 800 799 797 797 796 797 797 796 796 797 797 798
846 846 852 856 857 859 862 866 865 859 858 855 848 855 861 860 866 872 872 872 872 873 873 874 875 870 868 871 867 865 870 873 876 872 864 861 854 848 851 855 852 851 852 855 857 856 850 846 852 851 838 832 827 824 834 841 832 823 818 814 814 819 824 819 808 810 815 807 801 809 814 808 804 805 804 803 804 801 799 798 798 799 800 799 799 799 798 800
847 844 848 848 845 849 853 855 857 858 859 857 853 855 859 859 860 861 865 873 875 872 868 868 871 866 863 865 861 861 867 867 868 867 860 859 858 849 844 848 851 850 850 852 855 857 847 841 857 865 845 835 839 837 841 844 836 831 825 817 815 818 817 814 814 820 821 808 803 810 812 808 807 807 805 805 805 803 802 802 802 802 802 801 800 799 799 801
849 847 850 849 843 846 850 850 853 856 857 857 857 856 856 854 853 855 864 870 870 871 868 858 857 862 866 866 862 860 860 854 853 858 857 856 857 853 844 841 846 850 848 846 851 857 848 840 861 872 845 830 843 849 847 843 833 824 819 816 817 818 818 817 819 825 822 814 813 815 812 810 810 807 805 804 804 805 804 802 803 802 801 802 801 800 801 802
845 844 848 849 848 852 855 854 854 855 857 858 854 853 856 853 847 853 862 858 851 862 872 857 849 861 869 868 863 857 852 848 845 849 855 855 854 854 848 842 845 849 847 846 852 854 845 839 859 868 836 815 834 848 845 844 836 816 806 812 817 815 815 814 815 819 816 812 816 816 810 810 810 808 808 804 803 804 800 796 798 800 801 802 801 802 803 802
842 842 845 845 846 852 854 855 857 854 855 857 851 851 853 849 847 849 851 849 845 851 861 854 849 863 873 872 865 855 851 853 849 847 852 853 850 849 847 847 851 851 848 851 853 850 848 846 854 854 825 803 819 835 835 840 837 814 798 803 809 806 806 807 809 813 810 807 811 810 806 808 809 808 807 805 802 801 797 795 797 798 800 803 802 803 804 803
840 842 844 842 843 850 854 855 857 850 846 848 848 848 846 844 850 850 842 846 852 851 853 854 852 858 866 865 858 849 850 855 854 853 856 855 853 853 851 853 856 854 851 855 856 857 858 852 850 854 829 798 808 832 829 815 805 795 793 800 804 804 805 805 807 810 810 808 803 798 799 805 809 809 808 807 805 801 796 797 798 798 800 802 802 802 802 803
Wind_Speed
7 7 7 7 7 7 7 6 4 1 2 2 2 2 2 3 3 4 5 6 7 9 11 13 14 14 13 14 10 4 6 8 12 15 13 9 8 9 9 10 13 14 13 13 17 16 14 15 17 20 12 4 4 3 5 4 2 2 1 2 4 2 2 1 0 1 1 2 5 6 3 6 7 2 2 1 5 4 3 3 2 3 3 1 8 24 32 31
7 7 8 7 7 7 6 7 5 2 2 1 1 2 2 2 2 3 4 6 7 8 10 12 14 14 13 13 9 2 2 3 9 13 11 10 10 9 8 11 15 15 14 15 17 16 11 9 12 14 8 3 4 4 4 3 3 1 2 1 3 1 2 1 4 5 4 5 8 9 6 4 6 4 4 5 1 4 5 1 2 3 3 5 14 26 30 31
7 7 8 7 7 7 6 6 5 2 2 1 1 2 2 2 1 2 3 5 6 8 10 12 14 14 14 14 10 2 3 2 5 8 10 10 10 10 9 12 15 15 16 14 14 14 10 7 8 7 5 3 3 3 4 3 3 0 1 1 2 2 5 2 6 6 4 6 8 9 8 7 6 3 2 5 5 8 9 6 5 4 5 8 12 23 29 29
7 7 7 7 7 7 7 6 5 3 2 0 1 2 2 2 1 1 2 5 7 8 10 12 13 14 16 14 9 3 1 2 3 5 10 10 11 11 10 12 15 16 16 13 10 11 10 9 7 5 4 3 3 3 3 3 3 1 1 2 3 4 4 5 7 6 4 6 6 8 8 7 6 4 3 4 6 6 8 9 10 12 12 11 11 19 27 26
6 6 6 7 7 7 7 6 5 4 3 1 2 2 3 3 2 0 2 4 6 9 10 12 13 14 16 13 8 3 1 4 3 5 9 10 11 11 10 12 14 15 15 11 9 10 10 9 7 5 4 3 4 4 2 3 3 2 1 2 3 3 3 9 9 6 5 6 6 7 7 7 7 4 3 5 7 6 6 10 12 14 16 16 15 19 22 22
6 6 6 7 7 7 7 7 6 5 4 2 2 3 3 3 2 0 2 4 6 8 10 13 14 14 15 12 6 3 4 2 3 5 8 8 10 10 10 11 11 13 13 12 10 9 9 8 5 4 3 3 3 1 1 3 3 2 3 2 3 2 2 8 9 8 6 5 6 6 6 5 8 7 3 5 8 4 2 6 6 7 16 24 25 21 17 18
6 6 6 6 7 7 7 7 6 6 4 3 3 3 4 4 2 1 2 3 5 8 10 13 15 14 15 10 4 5 6 1 3 5 7 7 9 9 10 10 10 12 14 16 14 8 6 7 6 3 3 3 2 1 3 4 2 2 3 5 4 2 3 6 8 10 8 6 7 5 5 5 7 8 2 3 8 5 5 4 3 7 14 21 22 21 19 23
6 6 6 7 7 7 7 7 7 7 5 4 4 4 4 4 3 2 2 3 5 7 9 12 15 15 15 10 3 4 4 1 2 4 5 7 8 10 11 10 11 14 14 15 13 7 5 6 4 2 3 2 1 1 4 4 2 2 3 4 3 3 5 7 8 10 10 7 6 6 6 7 7 6 3 6 8 4 3 2 6 9 12 14 15 19 21 23
6 6 6 7 7 7 7 7 8 7 6 4 4 5 5 5 3 3 3 4 5 7 9 11 14 15 14 9 4 4 3 3 2 4 5 7 9 10 11 11 13 15 12 11 10 8 5 3 2 2 2 1 1 1 3 3 2 2 2 4 4 6 6 7 7 9 11 6 5 8 9 9 6 3 5 8 7 3 1 2 6 10 10 12 14 17 19 19
5 6 7 7 7 8 7 8 8 8 6 5 5 6 6 5 4 4 4 4 5 7 9 11 14 15 11 7 6 4 3 2 3 4 5 8 9 10 11 11 12 13 10 8 9 8 4 1 0 2 3 1 1 1 1 2 1 2 3 5 6 8 7 5 6 8 10 7 6 8 11 11 6 4 5 5 4 3 3 5 7 11 11 12 13 14 17 18
5 6 7 7 8 8 8 8 9 8 7 6 6 7 7 6 5 4 4 4 6 7 8 10 14 15 10 5 6 2 3 2 3 4 5 8 9 10 10 10 10 10 9 8 8 6 3 0 1 2 1 1 2 2 2 3 2 3 4 6 7 8 6 5 6 7 6 6 6 5 9 11 5 6 7 4 3 4 4 6 8 10 11 13 13 11 13 16
6 7 7 7 8 8 8 9 9 9 8 7 7 8 7 6 6 5 5 5 6 7 8 10 13 14 9 4 3 1 3 3 4 5 6 8 9 9 10 9 9 9 7 6 7 6 3 1 2 2 2 1 3 3 1 3 2 3 1 4 8 6 6 7 6 7 6 4 4 3 7 12 9 6 5 5 4 4 4 6 8 10 11 11 11 10 10 13
6 7 8 8 8 8 9 9 9 9 9 8 7 7 7 6 6 5 5 5 6 7 8 10 12 12 7 2 2 4 4 4 6 6 7 8 9 9 9 8 7 7 6 6 7 5 2 1 2 1 2 1 2 3 2 2 3 4 1 1 6 6 6 7 5 7 7 6 5 2 7 11 10 7 6 6 5 6 5 7 8 8 10 10 9 8 7 11
6 7 8 8 8 8 9 10 10 10 9 8 6 6 6 7 6 6 6 6 7 8 9 9 11 9 4 1 4 4 5 6 6 6 6 7 8 8 8 6 6 6 6 6 5 3 1 2 3 1 0 1 2 4 5 4 3 4 3 1 1 3 5 5 3 3 4 6 6 6 8 9 5 4 5 7 8 9 7 9 9 6 8 9 8 8 6 8
6 7 8 9 10 10 9 9 10 10 9 6 4 5 6 6 6 6 5 6 7 8 8 9 8 5 2 3 4 4 7 6 5 5 6 7 7 6 4 3 4 4 4 3 1 1 3 3 3 1 2 2 1 3 4 4 3 1 2 3 1 2 4 7 6 3 5 6 4 8 8 6 5 5 5 6 7 10 9 10 10 7 9 11 8 8 7 7
7 8 9 12 12 10 7 8 9 9 6 4 1 3 5 5 6 6 6 7 7 8 8 7 4 3 2 2 1 3 6 5 5 7 7 6 6 5 3 2 2 1 1 1 2 3 4 4 2 2 1 2 1 1 3 3 3 1 2 3 3 3 4 5 6 4 6 5 3 9 6 2 4 4 5 7 7 9 9 10 11 9 10 11 8 8 7 6
8 9 11 13 12 9 6 7 7 6 4 2 1 3 4 4 5 5 6 7 7 7 6 3 1 3 1 2 2 3 4 5 8 9 7 6 6 6 4 1 1 2 3 3 3 3 2 2 1 0 1 1 2 3 2 4 4 2 1 3 3 4 3 4 5 4 3 4 6 9 8 5 4 2 3 7 8 9 8 9 10 9 9 8 7 8 7 5
11 12 14 14 12 8 5 5 4 4 3 1 2 3 3 3 4 6 7 6 5 5 3 1 1 2 2 3 3 5 7 9 10 8 6 5 5 5 3 2 2 2 3 4 1 1 1 1 1 1 2 1 2 3 2 6 4 3 4 3 3 4 5 6 6 4 1 3 6 7 8 9 9 6 3 5 8 8 7 8 9 9 10 8 8 10 9 8
12 13 14 14 10 6 4 3 3 3 2 2 3 3 1 2 3 5 4 2 1 2 1 1 0 1 3 3 3 8 11 10 8 4 1 1 2 3 3 2 3 2 2 2 1 0 1 1 1 1 3 4 6 7 9 10 7 6 4 4 4 4 6 6 7 5 2 3 6 7 8 8 9 11 7 5 7 7 7 7 8 9 9 8 8 9 10 9
13 14 15 13 8 4 2 2 2 2 2 3 4 2 1 1 3 4 3 1 3 2 1 3 2 1 4 4 6 12 11 6 3 1 3 3 4 4 3 3 4 3 1 2 1 0 1 1 3 6 9 9 9 11 13 12 8 4 2 3 5 5 7 6 5 5 2 1 5 6 8 7 8 11 9 7 7 7 8 8 8 8 7 7 7 7 8 7
13 14 14 11 6 2 1 1 1 2 2 2 2 2 1 1 1 2 4 3 3 1 0 3 3 3 7 7 9 9 4 2 3 1 4 4 4 2 1 2 3 3 2 2 1 0 1 3 9 11 11 12 10 9 11 11 8 5 4 5 6 7 9 8 7 6 2 1 5 6 7 7 8 9 9 9 7 8 10 9 8 9 7 7 9 7 7 6
13 14 13 9 4 1 0 1 1 2 3 3 4 5 4 4 3 1 1 2 5 1 0 1 1 4 7 6 6 2 2 3 5 2 5 5 3 0 2 2 0 3 2 2 1 1 2 7 14 14 8 8 9 8 9 11 10 7 6 5 7 5 5 8 7 6 2 2 5 8 8 7 8 9 9 10 9 8 10 9 9 9 7 8 10 9 8 8
13 13 11 7 3 1 1 2 2 2 3 4 6 7 6 6 5 2 2 1 5 4 1 1 1 2 4 3 2 1 2 2 3 5 4 6 1 1 2 0 3 3 1 3 2 3 4 8 10 9 6 5 9 8 8 9 8 7 6 6 9 6 3 5 5 2 3 5 5 6 5 6 7 8 9 9 8 7 7 8 9 9 9 9 10 10 10 11
12 12 9 5 2 1 2 3 3 4 4 5 7 8 7 6 4 1 1 2 3 4 1 1 1 2 2 2 1 1 1 2 3 4 5 8 2 1 2 3 3 3 3 5 6 5 11 13 7 5 6 5 9 8 8 7 5 8 9 9 11 8 6 7 4 2 1 3 6 4 4 5 5 7 8 6 7 7 6 7 8 8 7 7 9 9 9 9
11 10 7 3 1 2 3 4 4 5 5 5 7 7 7 5 2 1 1 3 2 5 2 1 1 1 3 1 2 2 0 2 5 3 6 7 3 1 1 2 1 3 5 4 5 6 11 11 3 4 6 4 7 7 7 8 5 6 10 13 15 10 7 8 3 3 3 3 5 5 2 4 4 8 9 5 7 9 7 7 8 7 7 8 9 9 8 8
10 9 5 2 1 3 4 3 3 5 3 3 6 6 5 4 2 1 2 4 2 5 3 0 1 1 2 1 2 1 2 3 5 3 4 4 3 2 2 2 1 3 4 2 3 4 6 3 1 2 4 4 7 7 7 8 5 5 5 13 16 11 8 8 3 2 2 3 2 5 4 3 2 6 9 8 10 11 8 7 7 7 7 8 9 9 8 8
9 8 4 1 2 4 3 2 4 4 1 2 6 5 3 2 1 1 2 5 3 2 1 1 0 0 2 2 2 1 2 4 1 2 3 2 1 1 1 3 2 3 2 1 2 2 3 2 1 2 3 4 5 6 6 8 6 4 1 8 12 11 11 9 6 5 4 3 2 5 6 3 3 5 7 10 11 12 10 9 8 7 8 8 9 10 8 8
9 7 3 0 3 4 2 2 4 3 1 4 6 4 2 1 2 1 4 4 2 0 0 2 1 0 2 3 3 1 4 4 2 1 1 3 1 1 2 6 4 5 3 3 3 3 1 3 3 2 2 3 4 5 4 6 7 4 1 4 8 9 9 7 6 6 5 3 3 5 6 3 4 3 5 10 12 13 13 13 10 9 9 9 8 9 8 9
8 7 2 2 4 4 2 2 3 2 3 6 5 2 2 1 2 3 5 1 2 1 0 1 1 2 4 5 3 2 3 2 0 4 2 2 3 1 3 5 4 6 3 5 6 6 3 3 3 2 2 4 5 5 4 7 8 2 3 2 4 4 5 5 5 5 4 4 5 5 7 4 3 2 5 9 11 12 11 11 11 10 11 10 9 9 9 10
8 6 1 3 4 4 3 3 3 4 5 6 4 2 1 1 3 6 3 2 1 1 1 0 1 2 6 6 5 4 1 1 3 4 3 0 1 2 2 1 1 3 3 2 7 10 8 3 4 2 4 4 3 4 4 8 9 2 2 2 3 3 4 4 4 4 3 4 5 6 9 6 2 2 6 7 9 11 10 9 9 9 9 10 10 10 10 10
8 5 1 4 5 5 4 2 3 6 5 5 4 2 1 2 5 6 1 3 1 2 2 2 3 3 6 4 4 5 3 3 4 4 3 3 4 4 4 4 3 2 3 3 4 7 8 2 2 4 4 2 2 3 3 6 7 5 2 2 2 2 3 2 3 3 3 4 4 6 11 8 4 3 5 6 7 10 10 9 11 11 10 10 10 10 11 10
6 3 2 4 5 4 3 3 6 7 6 6 4 2 4 3 3 1 3 3 2 3 1 1 3 3 4 3 3 4 3 3 3 3 2 3 3 3 3 2 1 3 4 3 4 6 6 3 2 3 1 3 1 3 2 2 3 4 2 2 2 1 1 2 2 2 3 4 3 5 9 6 4 4 4 7 7 9 9 9 12 14 14 13 11 11 10 8
5 2 2 4 5 3 3 5 7 7 6 6 2 4 6 4 1 3 3 3 1 2 1 1 3 3 3 4 3 3 2 2 2 3 1 1 2 3 3 0 2 2 1 2 4 6 5 3 2 2 1 2 2 2 2 1 1 3 3 2 2 2 1 2 2 2 3 3 1 5 5 2 2 2 4 7 6 4 5 7 9 10 10 11 10 10 9 9
4 1 3 4 5 4 5 7 7 7 7 4 3 4 4 1 4 3 2 4 2 2 1 1 4 5 2 1 4 3 2 2 3 3 2 3 3 3 3 2 1 2 1 2 2 1 3 5 2 2 1 2 3 2 1 2 3 2 2 2 2 1 1 2 2 1 1 1 2 6 4 2 2 1 3 5 3 1 0 3 7 7 7 8 8 9 9 9
2 3 4 5 6 5 6 7 7 7 5 2 5 5 2 3 4 2 3 4 2 2 1 1 3 5 3 3 3 1 1 2 3 4 2 2 1 2 2 2 1 1 1 2 2 1 2 6 5 4 2 4 2 2 2 2 2 1 1 2 2 1 0 2 2 2 1 1 2 4 2 1 1 0 4 2 1 2 2 5 8 9 9 10 9 9 9 9
3 5 5 5 6 6 7 8 7 6 3 4 6 2 3 4 2 3 3 1 1 1 2 3 4 3 4 4 4 3 2 1 3 4 2 1 2 3 2 2 3 2 2 1 2 2 2 6 7 5 2 3 2 1 2 1 1 1 2 1 2 1 1 2 2 2 1 1 0 1 0 2 1 1 4 4 4 4 4 6 8 9 11 11 9 9 9 9
6 6 5 5 6 7 8 7 6 4 3 6 4 2 4 3 2 4 3 1 1 2 4 3 2 1 3 3 4 4 3 2 2 3 3 2 2 3 2 3 3 3 3 3 2 2 1 7 8 3 2 1 2 3 1 1 1 1 2 2 3 2 1 2 1 1 1 1 1 2 2 2 1 1 3 5 5 3 3 5 7 8 10 10 9 9 9 9
8 7 4 5 6 7 8 6 5 3 4 5 1 3 2 2 1 2 3 3 0 2 5 2 2 1 1 2 4 4 3 3 2 2 2 2 2 3 2 2 3 3 2 2 1 2 1 5 7 2 2 3 1 3 1 2 2 2 1 2 1 1 1 1 1 1 1 0 1 2 3 2 0 1 2 3 3 2 2 5 6 8 9 9 7 8 9 8
8 5 2 3 6 7 8 6 4 3 5 3 2 2 1 2 2 1 3 2 2 2 3 2 1 1 1 2 3 4 3 2 2 2 1 1 2 2 2 0 2 1 1 3 2 2 1 2 5 3 3 3 1 2 1 2 1 1 1 1 1 1 1 1 1 1 1 1 1 1 3 2 1 1 1 1 1 2 1 3 6 7 8 7 7 7 8 8
6 2 1 4 7 8 7 4 3 4 3 2 4 2 1 2 2 1 1 0 2 2 1 3 3 0 2 3 2 3 2 1 1 1 1 1 3 3 0 1 1 1 1 2 1 2 1 1 4 6 4 2 1 1 0 1 1 1 2 3 2 2 1 0 1 1 0 1 1 1 0 2 2 2 2 2 2 0 1 1 3 6 6 6 6 6 6 7
3 2 1 4 6 7 6 4 3 3 2 2 3 2 1 1 1 0 2 1 2 1 0 3 4 3 2 1 1 1 2 2 1 1 2 2 1 2 2 2 2 1 2 2 0 2 0 1 3 6 6 2 1 0 1 2 1 1 0 2 2 2 1 1 1 0 1 0 1 3 1 3 2 1 3 3 2 1 1 0 1 4 7 6 5 6 6 6
2 1 2 3 6 7 5 4 1 2 3 2 2 1 0 1 2 1 1 1 2 1 1 1 2 3 3 2 1 1 2 2 1 1 3 3 3 4 2 2 2 1 1 2 3 2 1 0 2 5 6 4 2 2 1 0 2 2 1 1 1 1 1 1 1 1 1 0 1 1 1 1 1 1 3 4 3 3 1 1 1 3 6 5 5 5 5 5
2 2 1 2 4 5 4 2 2 1 1 3 1 0 0 1 1 1 1 1 1 2 1 0 2 2 2 2 1 1 2 3 2 3 3 3 5 6 3 2 1 1 1 1 3 1 0 1 2 5 6 3 2 2 1 2 3 2 1 1 1 1 2 3 1 1 1 1 2 1 2 2 1 3 3 4 3 2 0 1 2 3 5 5 5 5 5 5
2 2 1 2 2 3 3 2 3 3 3 2 1 0 1 1 2 2 2 3 2 3 2 1 2 1 1 2 2 2 3 2 2 3 2 2 4 4 3 4 2 0 1 1 2 1 1 1 2 4 6 5 5 4 3 2 1 1 2 2 1 2 3 3 1 0 1 1 1 1 2 1 3 4 4 4 4 4 4 3 1 2 4 5 5 5 5 5
2 2 1 1 2 3 2 4 4 3 3 1 1 1 1 1 2 2 3 3 2 3 3 1 1 1 2 2 1 1 2 3 3 3 2 2 5 4 2 4 3 1 2 2 0 0 1 2 0 2 2 4 4 4 3 4 4 3 3 2 0 2 3 2 2 1 1 1 1 2 1 1 4 6 7 7 7 5 5 4 4 3 2 3 4 4 5 5
3 1 1 2 3 3 1 1 4 3 3 3 0 2 3 2 1 1 2 3 2 3 2 0 1 1 2 2 0 2 2 3 2 3 3 3 5 3 0 3 4 3 3 1 3 3 2 1 1 4 5 5 6 6 3 3 4 5 7 8 5 2 2 2 1 1 1 2 2 1 1 2 5 7 8 8 7 5 4 4 4 4 4 3 2 2 3 4
2 2 3 2 1 0 1 2 2 2 2 4 2 2 3 3 1 1 1 2 1 2 1 1 2 3 2 3 2 2 2 1 1 2 4 4 4 5 3 2 3 3 3 1 2 3 2 2 2 3 6 9 9 8 3 2 3 5 7 9 8 5 3 2 2 2 2 2 2 1 2 2 4 6 7 7 6 5 4 5 4 3 3 3 2 3 2 2
1 1 2 2 1 3 2 3 6 4 2 2 2 1 3 3 2 2 1 0 1 1 2 0 2 5 7 5 3 1 1 1 2 3 4 3 3 6 6 0 2 1 0 1 1 3 3 3 2 1 7 10 8 7 4 1 4 5 5 7 8 6 4 4 3 3 3 1 1 2 3 3 3 4 6 5 4 4 3 3 3 3 3 4 3 4 2 1
1 0 2 2 1 3 2 3 7 8 4 2 1 2 4 5 5 4 2 2 1 3 3 2 6 7 7 6 4 2 3 1 3 4 3 3 3 3 4 2 1 2 4 3 3 2 3 3 2 1 8 9 4 4 2 1 3 4 5 6 6 5 1 2 1 3 3 2 1 3 3 3 3 4 5 4 3 4 4 2 2 2 2 3 4 3 2 1
2 1 1 2 2 1 1 3 6 7 3 2 2 3 4 6 7 4 2 5 3 2 3 5 7 5 5 7 7 5 7 7 4 5 4 2 4 2 1 3 2 4 5 3 3 2 2 3 0 1 5 8 3 1 1 2 4 4 5 4 3 2 1 2 1 1 2 2 3 3 3 3 3 4 4 5 4 4 4 3 3 2 2 2 2 2 3 3
4 2 3 3 1 1 2 3 5 5 3 2 4 4 3 6 8 5 3 5 6 6 7 8 6 3 3 5 8 9 10 8 7 8 7 4 4 3 3 2 2 3 6 3 2 3 3 3 2 5 5 7 3 4 5 3 2 2 5 5 3 2 0 1 1 1 2 1 2 4 3 1 3 3 4 5 6 6 6 4 3 3 2 1 1 3 3 4
5 1 2 4 1 1 2 2 3 3 3 4 5 5 4 4 5 5 3 2 3 4 7 9 7 5 3 4 10 12 9 7 8 7 5 4 4 3 3 1 2 1 2 1 2 2 2 2 3 4 4 7 6 6 7 3 4 2 5 3 1 1 1 1 1 2 4 4 3 1 1 2 2 0 2 3 4 5 5 4 3 3 3 2 3 4 5 5
Wind_Direction
39 39 43 39 31 31 32 21 7 66 73 46 124 119 106 108 82 70 48 38 29 21 21 20 18 9 4 10 19 71 86 66 53 49 51 43 32 20 8 1 358 356 356 1 13 24 28 19 5 6 19 37 10 352 348 352 22 29 94 219 249 188 179 224 106 279 310 0 320 293 227 203 217 214 169 92 45 85 93 27 9 24 26 22 131 142 151 154
34 33 34 32 27 26 28 22 11 54 97 83 154 160 124 119 93 65 42 32 22 14 17 16 15 6 359 4 6 68 137 51 45 46 40 29 27 19 5 4 4 0 1 8 19 29 34 11 354 7 28 31 352 352 358 355 18 79 136 258 254 128 308 335 46 11 7 349 327 322 339 310 240 211 173 180 157 139 138 72 29 56 82 111 132 143 149 152
31 31 27 25 21 21 18 13 13 38 89 141 182 178 159 143 116 60 33 24 16 10 12 12 11 4 0 359 1 359 234 303 31 27 18 16 16 16 8 4 4 3 4 7 16 26 31 13 3 19 37 35 5 349 9 357 343 32 131 271 259 333 311 335 34 11 1 343 332 325 334 324 288 300 218 186 172 179 179 168 150 170 162 145 146 147 150 155
26 27 22 19 16 16 12 7 12 16 16 252 214 194 181 170 151 66 24 16 11 9 9 9 7 6 3 357 359 351 243 35 15 352 6 10 9 13 9 3 4 3 4 7 12 21 26 22 25 42 47 28 341 357 20 338 338 350 108 190 263 334 317 308 342 355 356 340 331 321 323 318 305 314 285 175 162 207 205 185 179 183 173 158 156 152 154 158
21 21 15 14 13 11 8 2 4 3 351 319 253 222 199 190 182 66 10 5 7 7 5 8 6 5 3 359 358 342 107 54 338 342 7 8 10 10 4 1 3 1 6 19 23 25 25 21 35 46 47 39 352 12 22 333 20 342 247 191 280 351 325 301 322 346 354 336 327 327 320 312 313 304 268 203 196 219 207 210 206 186 170 159 158 158 158 160
13 11 10 9 7 5 3 356 355 353 337 309 258 235 220 210 203 273 340 348 358 3 2 6 6 2 0 1 6 25 91 78 304 358 8 6 10 6 359 356 0 358 5 31 39 38 31 24 43 49 39 41 13 354 304 330 27 340 293 296 313 22 327 302 318 325 341 341 319 318 309 313 318 302 265 223 235 259 254 235 218 182 174 164 158 158 160 164
7 3 3 3 1 358 356 352 350 344 327 289 251 237 231 222 218 275 308 336 345 355 360 4 2 359 359 1 12 43 71 109 297 4 1 3 2 358 357 350 355 356 7 27 32 37 39 37 49 81 66 32 24 296 303 332 36 146 268 301 316 345 303 298 311 313 323 311 283 287 304 309 295 293 312 248 248 264 312 294 150 152 174 169 160 160 167 172
5 358 357 358 355 353 349 345 345 338 322 286 253 236 235 229 222 259 287 315 332 349 356 0 359 357 357 1 41 44 32 267 311 355 348 354 352 352 354 350 354 359 13 24 23 27 34 45 46 80 65 19 83 336 332 351 4 173 237 296 313 311 297 300 308 308 308 295 279 285 289 276 264 283 303 265 256 250 295 276 146 142 165 175 172 170 171 175
1 351 350 353 349 347 344 340 339 331 318 294 263 246 241 231 224 252 277 299 319 343 352 354 355 356 355 1 72 65 334 264 282 324 340 348 346 349 353 355 355 358 12 14 11 22 26 45 22 56 101 264 109 344 360 28 328 207 250 294 307 302 293 299 301 299 301 295 293 298 286 268 257 288 283 254 256 260 191 163 150 146 168 182 182 180 175 175
353 346 345 346 344 344 340 336 334 327 316 294 271 255 243 232 227 247 266 293 308 330 346 349 349 355 357 8 68 67 317 273 259 288 331 341 342 348 353 354 351 352 2 358 359 18 33 113 132 104 150 232 19 268 148 122 253 266 287 293 295 291 283 281 282 285 295 290 272 274 277 273 247 210 256 258 251 246 152 148 162 158 175 188 187 187 179 175
345 342 340 339 341 341 338 335 331 327 315 289 272 256 242 233 229 246 263 287 304 324 339 342 346 352 359 35 82 72 321 300 259 283 318 329 337 342 343 342 343 348 351 351 348 356 15 130 105 87 114 346 335 287 200 182 275 298 300 310 292 287 287 266 264 270 278 284 262 244 271 276 249 209 230 239 232 233 169 154 169 169 179 191 190 185 180 178
343 339 337 337 338 336 335 334 330 327 316 295 273 253 238 231 229 245 261 283 301 319 333 338 346 348 356 42 114 230 313 306 278 291 306 319 330 330 331 331 332 338 341 337 325 331 340 297 78 67 257 328 334 321 247 231 294 292 293 311 293 305 298 259 244 243 231 254 273 301 289 263 247 234 207 200 201 208 195 166 171 179 182 190 190 183 180 174
342 337 336 335 334 332 331 330 329 326 316 297 273 251 233 227 229 244 261 284 298 314 329 335 342 345 3 38 239 255 287 290 290 299 307 315 321 321 324 321 313 317 321 308 297 313 331 226 114 153 234 60 298 283 304 320 336 310 290 251 298 329 293 255 236 235 227 231 233 254 278 251 245 246 192 174 179 187 201 184 180 183 182 188 190 183 177 166
341 336 336 333 328 327 328 328 327 323 317 301 273 245 226 222 229 242 261 284 295 311 326 334 339 345 16 274 262 255 268 284 300 311 317 315 313 317 320 308 291 295 303 297 285 287 224 170 123 98 257 168 260 305 331 345 359 321 299 238 306 312 281 281 284 232 230 249 207 188 252 250 246 267 213 182 174 179 194 197 190 181 180 185 183 175 166 161
338 332 331 332 328 323 323 327 325 321 319 307 274 232 218 216 229 245 265 282 296 311 322 332 340 359 20 303 274 252 266 281 303 319 323 312 305 310 316 295 280 294 303 286 228 162 159 142 111 101 271 279 22 353 327 331 359 353 284 296 313 225 279 311 297 201 204 268 208 185 246 254 220 243 228 207 191 182 190 202 197 186 183 181 175 167 159 149
335 326 326 334 335 325 320 329 325 324 327 319 280 210 206 212 231 250 267 282 299 309 318 331 356 62 56 307 293 264 268 281 314 329 328 308 293 287 284 273 266 282 349 245 147 125 120 111 94 137 209 305 55 49 340 329 320 336 213 262 271 239 289 317 296 235 205 258 249 214 242 281 219 229 207 210 208 195 197 203 196 192 189 181 169 160 153 138
337 332 335 340 340 328 322 336 331 331 343 338 185 185 194 214 241 258 273 287 299 305 318 323 81 80 15 276 310 303 285 296 317 322 316 295 275 270 259 226 135 121 72 74 129 126 85 74 53 50 49 35 120 93 4 290 275 306 233 243 258 243 266 298 297 295 196 204 239 241 247 255 269 293 204 206 206 202 205 205 197 193 191 179 160 153 148 142
339 340 342 342 340 330 326 340 341 346 355 20 125 158 178 221 255 271 279 292 304 315 344 354 94 71 310 288 299 301 299 304 314 313 303 288 261 248 227 175 100 93 46 43 103 121 12 2 81 347 342 73 145 125 200 253 243 234 228 239 263 245 242 255 267 289 31 213 238 259 260 254 266 279 256 219 212 209 207 204 199 194 191 179 163 163 162 160
335 339 340 341 340 331 330 346 355 6 23 76 113 135 159 264 280 284 285 297 300 318 329 261 42 37 285 279 287 305 304 303 312 313 326 50 180 172 141 96 68 81 52 8 305 83 105 337 53 290 258 215 202 192 209 234 232 220 223 224 242 256 246 241 252 263 328 291 256 258 263 260 264 263 255 230 221 220 213 205 203 200 192 177 170 173 171 165
330 335 337 341 341 326 335 357 13 26 52 97 122 121 75 352 353 324 311 214 192 194 188 205 191 271 294 295 314 320 315 298 281 150 111 112 129 132 101 54 40 54 124 196 239 232 136 244 249 239 244 240 224 208 216 234 235 214 217 232 233 248 256 249 255 252 167 261 263 249 254 255 254 256 249 229 219 220 216 207 205 204 188 172 173 170 161 151
326 330 334 339 336 324 336 15 51 55 67 100 137 129 148 140 48 316 312 292 239 178 258 221 190 246 272 286 312 323 328 305 280 123 129 141 113 110 304 38 31 356 260 190 115 148 134 236 251 247 243 249 247 223 221 235 236 225 228 255 258 244 255 257 248 251 160 158 269 267 268 261 246 252 250 229 214 217 217 208 205 202 182 168 170 160 143 125
322 325 332 338 330 317 295 112 79 78 77 91 114 111 119 127 124 157 55 305 285 310 71 246 195 271 278 284 294 298 49 2 319 332 153 154 77 292 269 62 132 273 244 128 74 274 230 240 254 263 256 251 256 234 220 228 227 229 226 244 260 240 257 272 258 256 212 163 263 266 267 265 247 243 242 229 217 214 214 206 204 200 182 168 166 153 135 127
320 323 330 334 325 279 158 125 103 87 93 110 112 107 110 109 109 107 88 81 296 315 41 152 175 288 310 305 245 206 36 22 307 308 177 155 60 200 180 100 238 263 194 163 221 261 267 256 255 270 267 245 255 237 213 225 224 222 215 221 247 222 174 261 269 245 189 185 235 258 266 270 257 248 241 230 223 219 212 203 202 201 190 177 168 155 148 147
319 324 330 327 312 193 160 139 120 98 106 117 109 111 115 102 97 92 74 91 308 302 281 237 192 193 255 278 241 190 355 180 221 287 176 151 89 101 174 224 235 271 233 205 215 232 263 272 280 286 268 245 256 247 208 221 229 219 214 214 240 231 196 230 267 356 320 217 226 242 286 280 244 243 246 227 218 223 212 199 201 201 185 165 155 151 154 151
324 324 326 325 272 188 161 143 132 118 115 113 111 113 109 87 63 87 79 69 332 302 313 274 256 203 223 240 260 230 336 239 232 237 176 160 149 114 239 225 187 260 250 236 234 242 261 271 299 289 278 254 251 250 213 213 229 233 221 218 233 236 216 230 261 350 330 274 219 179 232 272 213 221 236 215 209 215 201 192 193 181 159 150 151 154 151 144
327 323 326 323 211 180 160 145 142 132 120 118 120 113 100 81 57 127 91 58 340 298 329 279 149 293 249 277 267 205 52 281 244 204 177 177 178 184 278 275 232 252 255 274 258 249 264 267 115 254 280 268 250 253 225 205 220 258 219 209 224 228 221 223 196 162 228 268 234 164 193 264 232 219 218 203 209 209 194 184 179 165 158 159 159 159 151 142
329 322 327 313 188 173 163 160 168 154 138 148 134 119 105 91 81 177 70 37 346 296 328 274 120 115 238 292 326 113 328 296 297 96 143 160 186 139 254 263 254 261 254 338 292 246 240 255 208 207 262 270 260 264 230 187 203 258 178 182 206 214 219 216 194 198 231 286 290 195 199 241 263 238 201 191 207 210 201 193 177 164 161 158 160 161 153 147
331 322 320 223 174 180 175 150 175 176 142 144 137 125 121 139 251 178 80 46 317 1 52 277 278 241 278 334 22 123 284 313 36 312 129 140 199 106 258 244 228 254 226 139 274 273 190 242 239 209 284 279 256 265 238 187 206 247 35 170 188 199 212 204 197 221 238 273 274 209 187 214 260 252 180 179 201 212 205 199 186 170 164 157 158 161 153 156
330 321 306 165 168 181 174 154 171 161 133 135 131 144 157 230 296 60 76 80 291 40 108 323 287 287 339 2 3 336 304 351 110 277 337 138 212 165 249 231 208 259 240 166 236 268 261 225 196 171 257 250 240 253 232 202 216 260 13 192 163 169 193 182 198 224 222 233 256 209 175 197 250 213 177 180 199 210 202 194 188 177 172 165 158 158 156 160
323 317 275 165 165 167 157 153 158 147 140 134 136 163 155 6 49 61 43 250 285 338 231 14 307 322 12 9 331 335 348 313 311 320 351 12 280 322 265 200 134 268 289 221 235 258 268 228 134 192 230 225 256 268 228 213 224 269 357 225 182 158 163 167 200 220 227 236 243 200 178 198 256 194 189 191 195 200 192 183 183 177 174 170 162 159 161 166
314 312 201 169 165 161 155 145 153 154 144 140 154 152 62 23 72 85 311 249 254 320 350 13 340 16 38 23 311 329 359 311 321 356 354 346 356 345 354 26 6 331 353 320 254 269 276 231 160 244 222 174 300 290 228 217 233 248 297 262 231 177 160 178 193 196 223 254 251 196 174 185 231 215 200 205 191 186 189 184 176 175 175 175 170 165 167 170
307 304 190 175 168 163 157 155 159 154 149 151 149 70 74 44 32 132 277 313 327 315 15 353 321 7 16 352 283 293 324 307 324 39 5 341 356 329 351 38 355 1 360 328 318 313 289 224 236 281 217 171 246 305 275 193 206 220 231 267 250 186 174 212 204 207 224 244 253 180 161 174 229 235 213 212 198 179 182 185 181 182 181 178 172 167 167 165
295 287 177 171 168 163 145 154 158 154 159 161 125 49 77 70 301 222 269 318 310 314 17 236 301 329 337 330 298 284 303 292 331 29 351 339 358 312 319 20 118 71 329 299 334 330 313 301 299 313 307 177 172 329 324 318 243 223 212 234 237 206 227 228 205 223 233 235 201 136 152 202 255 241 207 206 213 187 173 180 181 180 173 167 161 156 158 160
279 232 171 163 154 149 138 147 156 157 166 157 81 57 66 17 240 206 266 264 252 327 25 126 321 330 352 318 294 306 344 298 336 7 340 8 12 320 317 325 52 94 192 292 326 326 314 309 288 283 316 144 185 216 169 235 265 257 233 239 263 253 242 254 222 216 233 212 122 125 155 215 163 193 239 216 223 296 219 153 146 143 139 140 142 147 156 161
245 173 156 146 142 143 138 146 159 163 170 116 61 71 106 245 244 189 239 254 273 318 298 104 28 352 336 310 294 319 54 296 332 357 343 16 336 269 291 289 239 129 102 349 308 220 259 264 251 267 222 155 205 227 147 236 266 240 254 269 298 333 343 280 254 235 214 103 128 143 170 248 155 307 307 277 125 65 74 119 130 136 137 137 144 159 164 166
185 157 140 131 136 141 142 152 164 166 151 82 63 82 190 226 231 170 195 236 89 210 315 6 47 18 317 314 322 349 29 306 331 350 318 274 250 235 254 255 193 162 125 102 298 307 302 274 279 310 312 157 178 149 136 272 315 302 294 316 302 294 262 274 264 260 266 92 22 252 262 331 19 16 348 23 73 73 86 121 138 144 147 151 161 171 173 174
162 150 133 123 130 142 150 155 163 165 102 82 92 215 219 216 187 165 162 83 100 123 68 19 4 0 306 313 308 313 346 322 333 353 308 303 293 215 235 278 192 167 192 181 245 294 287 286 290 304 318 290 134 118 119 227 252 314 321 326 296 255 219 271 282 330 2 76 330 333 340 334 44 74 358 36 70 83 115 134 142 150 158 166 171 174 176 176
154 135 109 117 135 149 153 157 163 148 80 76 108 250 220 195 191 162 155 133 95 72 85 122 245 266 245 286 287 288 327 321 330 356 302 318 304 201 161 291 212 175 215 177 200 287 237 290 294 242 237 302 81 108 22 269 214 214 286 333 324 278 276 296 262 296 352 350 291 348 347 316 189 129 355 29 64 89 146 156 153 159 169 173 173 175 175 170
157 123 68 128 144 150 154 159 151 92 69 93 218 257 216 235 267 207 175 139 99 83 105 181 213 17 202 205 268 294 323 316 325 344 295 313 306 226 124 312 246 205 207 149 164 267 229 276 288 278 268 307 18 84 341 297 253 212 297 18 111 238 274 309 298 304 324 218 225 10 6 329 271 235 261 343 8 48 107 177 168 169 178 176 173 178 175 173
170 97 29 172 153 157 160 143 91 72 79 174 202 213 235 265 263 233 243 151 105 99 154 180 158 87 254 234 267 295 320 304 278 293 242 268 305 292 221 182 268 328 30 115 175 250 343 239 262 296 325 347 0 17 71 251 295 2 2 7 351 299 315 294 278 301 130 171 163 113 46 288 271 245 262 307 310 35 98 223 181 169 179 181 176 178 178 178
168 76 197 176 158 166 152 97 59 94 129 194 202 202 235 209 157 47 315 339 102 88 151 157 157 167 212 263 297 281 313 309 261 234 258 267 279 293 299 175 184 357 41 46 281 226 251 238 254 301 325 307 237 191 163 190 162 87 80 26 331 303 335 327 293 57 98 119 174 159 173 282 290 299 302 305 300 282 141 292 248 170 176 184 174 172 175 176
105 117 200 163 169 177 133 76 2 116 131 205 216 188 83 88 129 135 314 13 77 61 35 106 171 171 172 211 238 224 278 278 252 217 248 243 214 234 259 145 148 111 71 313 293 239 188 142 271 278 274 260 224 119 101 126 112 111 130 131 221 290 320 287 289 329 341 336 237 171 107 323 286 303 304 294 287 284 248 228 252 165 166 175 164 158 160 162
104 151 169 118 170 173 105 71 276 268 224 250 266 171 113 78 124 151 215 235 117 103 45 326 207 191 179 193 163 171 238 241 208 210 242 260 245 235 210 152 154 102 92 320 310 296 128 35 308 285 280 300 23 79 43 19 88 87 324 210 182 289 272 252 278 336 321 335 331 348 73 60 334 328 319 304 298 296 277 271 257 164 156 164 161 157 155 153
125 140 103 91 166 169 122 157 209 233 244 274 21 61 248 207 177 165 192 226 200 139 134 216 222 203 165 146 133 191 225 248 238 243 255 234 252 258 170 172 211 191 146 267 312 305 293 296 314 330 332 344 0 5 356 345 28 23 289 236 178 285 278 265 266 288 324 351 15 52 77 69 331 341 0 3 9 38 44 4 342 139 152 161 159 159 160 157
125 93 34 18 68 101 152 176 158 164 191 136 69 217 219 220 203 183 182 200 200 156 149 233 232 146 131 120 89 213 223 233 244 282 330 245 264 301 105 163 190 219 237 242 14 169 236 260 285 57 338 317 321 320 325 325 322 325 303 292 16 323 301 279 259 292 4 1 75 78 38 346 331 353 17 20 24 39 32 20 33 54 86 122 133 147 160 165
140 104 24 332 12 58 125 148 111 125 157 145 160 242 179 175 257 256 182 186 181 149 122 87 168 123 103 130 224 285 246 228 245 308 314 269 269 292 95 152 178 233 265 21 74 89 109 260 207 156 195 241 263 262 284 350 313 296 311 323 346 357 302 267 285 20 345 317 59 67 280 321 344 352 5 7 12 21 15 23 37 32 30 49 85 116 144 159
162 165 161 167 352 1 306 333 118 138 191 174 184 208 177 185 258 9 254 228 190 132 107 104 151 171 176 161 185 257 253 236 268 276 267 251 262 289 295 146 164 245 268 109 110 96 82 295 271 183 224 242 254 268 309 21 278 276 306 316 327 345 355 351 351 3 329 319 48 10 307 356 351 341 349 350 351 356 355 4 12 6 360 358 36 73 79 100
185 199 173 161 187 185 204 223 188 177 202 186 170 164 170 185 190 184 210 296 353 207 169 140 240 211 193 163 145 220 273 331 273 252 262 265 281 315 323 31 143 291 19 77 11 103 113 264 245 221 268 259 253 274 298 248 248 269 286 292 309 333 8 33 357 330 345 21 50 344 346 4 334 325 334 329 323 322 314 322 331 331 338 340 12 55 69 89
136 289 311 340 296 185 180 181 165 160 170 169 156 193 179 189 211 217 167 99 339 272 189 216 255 230 196 164 141 191 228 208 279 266 246 262 280 319 327 307 302 359 45 33 338 112 136 263 226 229 289 288 275 272 275 237 263 284 281 278 293 301 324 72 2 316 3 45 344 324 344 340 306 294 300 301 307 297 281 292 343 5 12 358 3 14 348 307
148 170 214 25 27 143 67 85 132 147 169 168 226 232 191 190 210 219 163 156 177 232 187 216 240 219 187 175 163 210 218 186 224 251 191 215 289 264 258 253 253 341 17 33 328 337 11 308 239 95 311 302 306 356 312 252 249 266 281 288 300 310 0 87 60 322 20 24 319 328 12 0 309 276 287 310 328 315 308 344 3 9 39 27 355 323 292 277
166 140 149 122 98 165 80 71 116 134 163 193 212 224 211 210 205 190 205 196 169 164 183 199 202 143 127 173 187 230 236 196 215 234 185 184 253 227 227 234 187 340 353 22 340 345 20 343 349 40 351 292 294 9 331 273 191 259 307 329 2 42 26 258 235 189 165 148 343 356 25 354 275 290 322 324 323 321 323 339 343 333 357 13 271 276 267 251
168 99 136 122 97 200 117 97 121 140 192 204 197 201 213 227 204 174 197 234 159 170 188 181 162 119 108 192 211 230 234 207 228 246 205 207 259 250 260 295 105 356 322 10 357 349 73 19 343 20 351 279 288 338 327 351 60 348 305 326 328 245 294 310 303 244 210 167 131 88 160 205 224 332 342 301 305 319 317 322 328 322 330 309 267 277 281 268